Location: Demmingen
(48.6757°N, 10.4375°E)
Time: 03:50:05
(UTC+00:00)

Cosmos 1400 Rocket - Pass Details

Date: 23 May 2024
Orbit: 501 x 544 km, 81.2° (Epoch: 19 June)

Event Time Altitude Azimuth Distance (km) Brightness Sun altitude
Exits shadow 00:33:18 32° 251° (WSW) 959 3.7 -18.5°
Maximum altitude 00:34:23 38° 288° (WNW) 840 3.7 -18.5°
Drops below altitude 10° 00:38:09 10° 357° (N) 1,817 6.5 -18.2°
Sets 00:40:25 0° 6° (N) 2,709 7.8 -18.1°
